Volkel, Netherlands

9:55 AM CEST on May 27, 2017 (GMT +0200)
Volkel Air Base

Weather History for EHVK - November, 2013

Change the Weather History Date:

Monday, November 11, 2013

  Actual Average Record
Temperature  
Mean Temperature 40 °F -  
Max Temperature 50 °F 45 °F 59 °F (2008)
Min Temperature 30 °F 34 °F 26 °F (2016)
Degree Days  
Heating Degree Days 25    
Moisture  
Dew Point 36 °F    
Average Humidity 92    
Maximum Humidity 100    
Minimum Humidity 71    
Precipitation  
Precipitation 0.00 in - - ()
Sea Level Pressure  
Sea Level Pressure 30.33 in    
Wind  
Wind Speed 5 mph ()    
Max Wind Speed 12 mph    
Max Gust Speed -    
Visibility 4.5 miles    
Events Fog    
Averages and records for this station are not official NWS values.
T = Trace of Precipitation, MM = Missing Value Source: Averaged Metar Reports

Daily Weather History Graph

Daily Weather History Graph

Search for Another Location

Airport or City:

Trip Planner

Search our weather history database for the weather conditions in past years. The results will help you decide how hot, cold, wet, or windy it might be!

Date:

Astronomy

Nov. 11, 2013 Rise Set
Actual Time 7:48 AM CET 4:52 PM CET
Civil Twilight 7:12 AM CET 5:29 PM CET
Nautical Twilight 6:31 AM CET 6:09 PM CET
Astronomical Twilight 5:52 AM CET 6:49 PM CET
Moon 2:04 PM CET (11/11) 12:32 AM CET (11/11)
Length of Visible Light 10h 17m
Length of Day
9h 04m
Waxing Gibbous, 63% of the Moon is Illuminated
Nov 11
Waxing Gibbous
Nov 17
Full
Nov 25
Last Quarter
Dec 3
New
Dec 9
First Quarter

Hourly Weather History & Observations

Time (CET) Temp. Windchill Dew Point Humidity Pressure Visibility Wind Dir Wind Speed Gust Speed Precip Events Conditions
12:25 AM 35.6 °F 30.7 °F 33.8 °F 93% 30.21 in 6.2 mi WSW 5.8 mph - N/A   Unknown
12:55 AM 35.6 °F 30.7 °F 33.8 °F 93% 30.24 in 6.2 mi WSW 5.8 mph - N/A   Unknown
1:25 AM 35.6 °F 30.7 °F 33.8 °F 93% 30.24 in 6.2 mi West 5.8 mph - N/A   Unknown
1:55 AM 35.6 °F 30.7 °F 35.6 °F 100% 30.27 in 6.2 mi West 5.8 mph - N/A   Unknown
2:25 AM 33.8 °F 29.6 °F 33.8 °F 100% 30.27 in 5.6 mi West 4.6 mph - N/A   Mist
2:27 AM 33.8 °F 29.6 °F 33.8 °F 100% 30.27 in 4.3 mi West 4.6 mph - N/A   Mist
2:41 AM 32.0 °F 27.5 °F 32.0 °F 100% 30.27 in 5.0 mi WSW 4.6 mph - N/A   Mist
2:55 AM 33.8 °F 28.6 °F 33.8 °F 100% 30.27 in 6.2 mi WSW 5.8 mph - N/A   Unknown
3:18 AM 35.6 °F 30.7 °F 35.6 °F 100% 30.27 in 4.3 mi WSW 5.8 mph - N/A   Mist
3:25 AM 35.6 °F 30.7 °F 35.6 °F 100% 30.27 in 5.0 mi WSW 5.8 mph - N/A   Mist
3:29 AM 35.6 °F 30.7 °F 35.6 °F 100% 30.27 in 4.3 mi WSW 5.8 mph - N/A   Mist
3:33 AM 35.6 °F 30.7 °F 35.6 °F 100% 30.27 in 5.0 mi WSW 5.8 mph - N/A   Mist
3:37 AM 35.6 °F 30.7 °F 35.6 °F 100% 30.27 in 4.3 mi WSW 5.8 mph - N/A   Mist
3:55 AM 37.4 °F 34.9 °F 37.4 °F 100% 30.27 in - WSW 3.5 mph - N/A   Mist
3:59 AM 35.6 °F 32.8 °F 35.6 °F 100% 30.27 in 1.7 mi WSW 3.5 mph - N/A   Mist
4:05 AM 35.6 °F 31.7 °F 35.6 °F 100% 30.27 in 2.5 mi WSW 4.6 mph - N/A   Mist
4:11 AM 35.6 °F 31.7 °F 35.6 °F 100% 30.27 in 1.8 mi WSW 4.6 mph - N/A   Mist
4:15 AM 35.6 °F 30.7 °F 35.6 °F 100% 30.30 in - WSW 5.8 mph - N/A   Mist
4:25 AM 35.6 °F 30.7 °F 35.6 °F 100% 30.30 in - WSW 5.8 mph - N/A   Mist
4:29 AM 33.8 °F 29.6 °F 33.8 °F 100% 30.30 in 3.1 mi WSW 4.6 mph - N/A   Mist
4:45 AM 35.6 °F 31.7 °F 35.6 °F 100% 30.30 in 3.7 mi SW 4.6 mph - N/A   Mist
4:49 AM 35.6 °F 31.7 °F 35.6 °F 100% 30.30 in - SW 4.6 mph - N/A   Mist
4:55 AM 35.6 °F 31.7 °F 35.6 °F 100% 30.30 in - SW 4.6 mph - N/A   Mist
5:03 AM 33.8 °F 29.6 °F 33.8 °F 100% 30.30 in 0.9 mi SW 4.6 mph - N/A   Mist
5:12 AM 32.0 °F 28.7 °F 32.0 °F 100% 30.30 in 0.4 mi SW 3.5 mph - N/A Fog Fog
5:16 AM 32.0 °F 28.7 °F 32.0 °F 100% 30.30 in 1.1 mi SSW 3.5 mph - N/A   Mist
5:25 AM 35.6 °F 32.8 °F 35.6 °F 100% 30.30 in 0.9 mi SSW 3.5 mph - N/A   Mist
5:29 AM 35.6 °F 32.8 °F 35.6 °F 100% 30.30 in 1.0 mi SW 3.5 mph - N/A   Mist
5:33 AM 35.6 °F 32.8 °F 35.6 °F 100% 30.30 in 0.9 mi SW 3.5 mph - N/A   Mist
5:37 AM 35.6 °F 32.8 °F 35.6 °F 100% 30.30 in 1.1 mi WSW 3.5 mph - N/A   Mist
5:47 AM 33.8 °F 29.6 °F 33.8 °F 100% 30.30 in 1.2 mi WSW 4.6 mph - N/A   Mist
5:55 AM 30.2 °F 26.7 °F 30.2 °F 100% 30.33 in 0.4 mi SW 3.5 mph - N/A Fog Light Freezing Fog
6:04 AM 32.0 °F 28.7 °F 32.0 °F 100% 30.33 in 0.6 mi SW 3.5 mph - N/A   Mist
6:08 AM 32.0 °F 28.7 °F 32.0 °F 100% 30.33 in 1.0 mi SW 3.5 mph - N/A   Mist
6:21 AM 33.8 °F 29.6 °F 33.8 °F 100% 30.33 in 1.6 mi SW 4.6 mph - N/A   Mist
6:25 AM 33.8 °F 29.6 °F 33.8 °F 100% 30.33 in 1.6 mi SW 4.6 mph - N/A   Mist
6:36 AM 32.0 °F 26.4 °F 32.0 °F 100% 30.33 in - SW 5.8 mph - N/A   Mist
6:40 AM 32.0 °F 26.4 °F 32.0 °F 100% 30.33 in - SW 5.8 mph - N/A   Mist
6:55 AM 32.0 °F 27.5 °F 32.0 °F 100% 30.33 in - SW 4.6 mph - N/A   Mist
7:04 AM 32.0 °F 28.7 °F 32.0 °F 100% 30.33 in - SSW 3.5 mph - N/A   Mist
7:08 AM 32.0 °F 28.7 °F 32.0 °F 100% 30.33 in 1.9 mi SSW 3.5 mph - N/A   Mist
7:12 AM 32.0 °F 28.7 °F 32.0 °F 100% 30.33 in - SSW 3.5 mph - N/A   Mist
7:18 AM 32.0 °F 28.7 °F 32.0 °F 100% 30.33 in 3.1 mi South 3.5 mph - N/A   Mist
7:25 AM 32.0 °F 28.7 °F 32.0 °F 100% 30.33 in 3.7 mi SSW 3.5 mph - N/A   Mist
7:29 AM 32.0 °F 28.7 °F 32.0 °F 100% 30.33 in - South 3.5 mph - N/A   Mist
7:33 AM 32.0 °F 28.7 °F 32.0 °F 100% 30.33 in 3.1 mi South 3.5 mph - N/A   Mist
7:40 AM 30.2 °F 25.4 °F 30.2 °F 100% 30.33 in - South 4.6 mph - N/A   Mist
7:44 AM 30.2 °F 25.4 °F 30.2 °F 100% 30.33 in 3.1 mi South 4.6 mph - N/A   Mist
7:47 AM 30.2 °F 25.4 °F 30.2 °F 100% 30.33 in 5.0 mi South 4.6 mph - N/A   Mist
7:55 AM 32.0 °F 27.5 °F 32.0 °F 100% 30.33 in 5.0 mi South 4.6 mph - N/A   Mist
8:00 AM 32.0 °F 27.5 °F 32.0 °F 100% 30.33 in 4.3 mi South 4.6 mph - N/A   Mist
8:03 AM 32.0 °F 27.5 °F 32.0 °F 100% 30.33 in 5.0 mi South 4.6 mph - N/A   Mist
8:12 AM 32.0 °F 27.5 °F 32.0 °F 100% 30.33 in 4.3 mi South 4.6 mph - N/A   Mist
8:20 AM 30.2 °F 25.4 °F 30.2 °F 100% 30.36 in 5.0 mi South 4.6 mph - N/A   Mist
8:25 AM 32.0 °F 27.5 °F 32.0 °F 100% 30.36 in 4.3 mi South 4.6 mph - N/A   Mist
8:30 AM 32.0 °F 27.5 °F 32.0 °F 100% 30.36 in 5.0 mi South 4.6 mph - N/A   Mist
8:34 AM 32.0 °F 27.5 °F 32.0 °F 100% 30.36 in 4.3 mi South 4.6 mph - N/A   Mist
8:47 AM 33.8 °F 29.6 °F 33.8 °F 100% 30.36 in 4.3 mi South 4.6 mph - N/A   Partly Cloudy
8:55 AM 33.8 °F 29.6 °F 33.8 °F 100% 30.36 in 3.7 mi South 4.6 mph - N/A   Mist
9:25 AM 37.4 °F 33.8 °F 35.6 °F 93% 30.36 in 3.7 mi South 4.6 mph - N/A   Mist
9:55 AM 39.2 °F 35.0 °F 39.2 °F 100% 30.36 in 3.7 mi SSW 5.8 mph - N/A   Mist
10:11 AM 41.0 °F 37.1 °F 39.2 °F 93% 30.36 in 5.0 mi South 5.8 mph - N/A   Mist
10:18 AM 41.0 °F 37.1 °F 39.2 °F 93% 30.39 in 4.3 mi SSW 5.8 mph - N/A   Mist
10:25 AM 41.0 °F 38.0 °F 41.0 °F 100% 30.39 in 4.3 mi SSW 4.6 mph - N/A   Mist
10:29 AM 41.0 °F 38.0 °F 39.2 °F 93% 30.39 in 5.0 mi SSW 4.6 mph - N/A   Mist
10:42 AM 42.8 °F 40.1 °F 41.0 °F 93% 30.39 in 5.0 mi South 4.6 mph - N/A   Mist
10:55 AM 42.8 °F 40.1 °F 41.0 °F 93% 30.39 in 5.6 mi South 4.6 mph - N/A   Mist
11:25 AM 44.6 °F 41.4 °F 41.0 °F 87% 30.39 in 6.2 mi South 5.8 mph - N/A   Unknown
11:55 AM 46.4 °F 42.4 °F 42.8 °F 87% 30.39 in 6.2 mi South 8.1 mph - N/A   Scattered Clouds
12:25 PM 46.4 °F 42.9 °F 42.8 °F 87% 30.39 in 6.2 mi SSW 6.9 mph - N/A   Partly Cloudy
12:55 PM 48.2 °F - 42.8 °F 82% 30.39 in 6.2 mi South 6.9 mph - N/A   Partly Cloudy
1:25 PM 48.2 °F - 42.8 °F 82% 30.39 in 6.2 mi South 8.1 mph - N/A   Mostly Cloudy
1:55 PM 50.0 °F - 42.8 °F 76% 30.36 in 6.2 mi South 9.2 mph - N/A   Unknown
2:16 PM 50.0 °F - 42.8 °F 76% 30.36 in 6.2 mi South 9.2 mph - N/A   Unknown
2:17 PM 50.0 °F - 41.0 °F 71% 30.36 in 6.2 mi South 9.2 mph - N/A   Unknown
2:25 PM 50.0 °F - 42.8 °F 76% 30.36 in 6.2 mi South 9.2 mph - N/A   Partly Cloudy
2:55 PM 48.2 °F - 42.8 °F 82% 30.36 in 6.2 mi South 8.1 mph - N/A   Mostly Cloudy
3:25 PM 48.2 °F - 41.0 °F 76% 30.33 in 6.2 mi South 10.4 mph - N/A   Partly Cloudy
3:55 PM 48.2 °F - 41.0 °F 76% 30.36 in 6.2 mi South 6.9 mph - N/A   Overcast
4:25 PM 48.2 °F - 41.0 °F 76% 30.36 in 6.2 mi South 5.8 mph - N/A   Overcast
4:55 PM 48.2 °F - 41.0 °F 76% 30.36 in 6.2 mi South 5.8 mph - N/A   Overcast
5:25 PM 48.2 °F - 41.0 °F 76% 30.36 in 6.2 mi SSE 5.8 mph - N/A   Overcast
5:55 PM 48.2 °F - 41.0 °F 76% 30.36 in 6.2 mi SSE 5.8 mph - N/A   Overcast
6:25 PM 48.2 °F - 39.2 °F 71% 30.36 in 6.2 mi South 6.9 mph - N/A   Overcast
6:55 PM 48.2 °F - 39.2 °F 71% 30.36 in 6.2 mi South 9.2 mph - N/A   Overcast
7:25 PM 48.2 °F - 39.2 °F 71% 30.36 in 6.2 mi South 10.4 mph - N/A   Overcast
7:55 PM 46.4 °F 41.9 °F 39.2 °F 76% 30.36 in 6.2 mi South 9.2 mph - N/A   Overcast
8:25 PM 48.2 °F - 39.2 °F 71% 30.33 in 6.2 mi South 10.4 mph - N/A   Overcast
8:55 PM 46.4 °F 41.5 °F 39.2 °F 76% 30.33 in 6.2 mi South 10.4 mph - N/A   Overcast
9:25 PM 46.4 °F 41.5 °F 39.2 °F 76% 30.36 in 6.2 mi South 10.4 mph - N/A   Overcast
9:55 PM 46.4 °F 41.5 °F 39.2 °F 76% 30.33 in 6.2 mi South 10.4 mph - N/A   Overcast
10:25 PM 46.4 °F 41.1 °F 39.2 °F 76% 30.33 in 6.2 mi South 11.5 mph - N/A   Mostly Cloudy
10:55 PM 46.4 °F 41.9 °F 39.2 °F 76% 30.33 in 6.2 mi South 9.2 mph - N/A   Overcast
11:25 PM 46.4 °F 41.1 °F 37.4 °F 71% 30.33 in 6.2 mi South 11.5 mph - N/A   Overcast
11:55 PM 44.6 °F 39.2 °F 37.4 °F 76% 30.33 in 6.2 mi South 10.4 mph - N/A   Overcast